OPS 4682 DEB, 38434

Orbit data source: Space-Track

OPS 4682 DEB, 38434 is space debris in LEO originally from a launch on Sat, 03 Apr 1965 UTC launched from the Air Force Western Test Range (AFWTR). Debris objects in space refer to the collection of defunct objects orbiting the Earth. Examples of debris include non-operational satellites, rocket bodies, and fragments generated from explosions, collisions, or faulty payload assembly.

Loading next visibility...
Identifier
38434, 1965-027EP
Orbit
LEO
Country
Flag of USUS
Related business
Manufacturer
Unknown
Mission
Spacecraft
Bus & Motor
Unknown
Mass
Unknown
Launch date (UTC)
1965-04-03 (61 years ago)
Launch vehicle
Unknown
Launch site
Air Force Western Test Range (AFWTR)
Object type
Payload
Rocket body
Debris
Shape & HBR
Unknown shape, 0.1 m
Radar Cross Section
Medium (>0.1 m² and <1 m²)

Expand to show TLE details & history
Last TLE update: 21 hours ago

TLE from 21 hours ago
0 OPS 4682 DEB
1 38434U 65027EP  26174.98266945  .00000639  00000-0  21723-2 0  9996
2 38434  90.2422   6.1001 0031091 178.7549 181.3655 12.97396333663398
Epoch: 2026-06-23T23:35Z
TLE epoch observation values (Epoch: 2026-06-23T23:35:02.640Z)
Latitude
0.00003°
Longitude
100.19268°
Altitude
1,298.969 km
Speed
7.196 km/s
True Right ascension
00h 24m 24s
True Declination
0° 00' 00"
Sunlit
Object was in daylight at epoch
Visualization orbit readout
Latitude
Unknown
Longitude
Unknown
Altitude
Unknown
Speed
Unknown
Apparent Right ascension
Unknown
Apparent Declination
Unknown
Sunlit
N/A
Visualization observer readout
Local Sidereal Time
08:04:07
Azimuth
Unknown
Elevation
Unknown
Doppler factor
Unknown
Orbital elements
Apogee altitude
1,293.213 km
Perigee altitude
1,245.659 km
Semi-major axis
7,647.573 km
Eccentricity
0.00311
Inclination
90.2422°
RAAN
6.1001°
Arg. of periapsis
178.7549°
True anomaly
181.35704°
Mean anomaly
181.3655°
Eccentric anomaly
181.36127°
Mean motion
3.24532 °/min
Orbital period
110.93 mins
BSTAR
0.0021723
Loading maneuver chart data...
Computing Atmospheric mass density...
Loading historical data...
Loading historical data...
Loading historical data...
Loading historical data...
Loading historical data...
Loading historical data...
Loading historical data...

Documentation

Showing up to 5 results
|